Date String (YYYY-MM-DD hh:mm:ss) UTC,Instrument flags,absolute air pressure of the measurement (hPa),sample flow rate (lpm),inlet stack bypass flow (lpm),air temperature of the measurement (°C),ambient temperature measured by the external sensor (°C),aerosol sample conditioner tube jacket temperature (°C),OPC LED temperature (°C),internal box temperature (°C),relative humidity of the measurement (%),span deviation,mass concentration of particles derived from Lorenz-Mie calculation of OPC scattering (μg/m³),mass concentration of particles derived from Lorenz-Mie calculation of OPC scattering (μg/m³),mass concentration of particles derived from Lorenz-Mie calculation of OPC scattering (μg/m³)
DateTimeUTC,F1_M11,P_M11,Q1_M11,Q2_M11,T1_M11,T2_M11,T3_M11,T4_M11,T5_M11,U1_M11,ZSPAN_M11,X2_M11,X0_M11,X1_M11
2024-01-31 18:00:00,SystemResetWarning,0830.6,5.00,000.00,024.9,024.5,000.0,032.7,026.7,09.7,0000.0,0001.91,0005.65,0001.38
2024-01-31 18:01:00,SystemResetWarning,0830.7,5.00,000.00,025.0,024.5,000.0,032.8,026.7,09.6,0000.0,0001.91,0005.61,0001.37
2024-01-31 18:02:00,SystemResetWarning,0830.7,5.00,000.00,025.0,024.6,000.0,032.8,026.8,09.6,0000.0,0001.88,0004.84,0001.37
2024-01-31 18:03:00,SystemResetWarning,0830.7,5.00,000.00,025.0,024.6,000.0,032.8,026.8,09.5,0000.0,0001.88,0004.67,0001.37
2024-01-31 18:04:00,SystemResetWarning,0830.6,5.01,000.00,025.0,024.6,000.0,032.9,026.8,09.4,0000.0,0001.88,0004.62,0001.37
2024-01-31 18:05:00,SystemResetWarning,0830.6,4.98,000.00,025.1,024.7,000.0,032.9,026.8,09.1,0000.0,0001.87,0004.75,0001.36
2024-01-31 18:06:00,SystemResetWarning,0830.6,5.00,000.00,025.1,024.7,000.0,033.0,026.9,09.0,0000.0,0001.84,0004.61,0001.36
2024-01-31 18:07:00,SystemResetWarning,0830.6,5.02,000.00,025.1,024.7,000.0,033.0,026.9,08.9,0000.0,0001.83,0003.41,0001.37
2024-01-31 18:08:00,SystemResetWarning,0830.6,5.01,000.00,025.1,024.8,000.0,033.0,026.9,08.8,0000.0,0001.84,0003.94,0001.37
2024-01-31 18:09:00,SystemResetWarning,0830.6,4.99,000.00,025.2,024.8,000.0,033.1,027.0,08.6,0000.0,0001.88,0005.15,0001.36
2024-01-31 18:10:00,SystemResetWarning,0830.5,5.00,000.00,025.2,024.8,000.0,033.1,027.0,08.5,0000.0,0001.83,0005.51,0001.34
2024-01-31 18:11:00,SystemResetWarning,0830.5,5.01,000.00,025.2,024.8,000.0,033.1,027.0,08.7,0000.0,0001.81,0005.76,0001.31
2024-01-31 18:12:00,SystemResetWarning,0830.5,5.01,000.00,025.2,024.9,000.0,033.2,027.0,08.7,0000.0,0001.82,0006.99,0001.30
2024-01-31 18:13:00,SystemResetWarning,0830.5,5.00,000.00,025.3,024.9,000.0,033.2,027.0,08.7,0000.0,0001.79,0007.08,0001.29
2024-01-31 18:14:00,SystemResetWarning,0830.6,4.99,000.00,025.3,024.9,000.0,033.2,027.1,08.9,0000.0,0001.74,0006.91,0001.28
2024-01-31 18:15:00,SystemResetWarning,0830.4,5.00,000.00,025.3,024.9,000.0,033.3,027.1,08.7,0000.0,0001.77,0007.16,0001.30
2024-01-31 18:16:00,SystemResetWarning,0830.4,5.00,000.00,025.4,025.0,000.0,033.3,027.1,08.8,0000.0,0001.80,0007.45,0001.32
2024-01-31 18:17:00,SystemResetWarning,0830.4,5.00,000.00,025.4,025.0,000.0,033.3,027.2,08.9,0000.0,0001.90,0009.25,0001.34
2024-01-31 18:18:00,SystemResetWarning,0830.4,5.00,000.00,025.4,025.0,000.0,033.4,027.2,08.9,0000.0,0002.01,0009.54,0001.36
2024-01-31 18:19:00,SystemResetWarning,0830.4,5.00,000.00,025.4,025.1,000.0,033.4,027.2,08.7,0000.0,0002.03,0009.12,0001.39
2024-01-31 18:20:00,SystemResetWarning,0830.3,5.01,000.00,025.5,025.1,000.0,033.4,027.3,08.9,0000.0,0002.00,0008.51,0001.41
2024-01-31 18:21:00,SystemResetWarning,0830.4,4.99,000.00,025.5,025.1,000.0,033.5,027.3,08.8,0000.0,0002.06,0008.43,0001.47
2024-01-31 18:22:00,SystemResetWarning,0830.3,4.99,000.00,025.5,025.1,000.0,033.5,027.3,08.8,0000.0,0002.16,0008.53,0001.52
2024-01-31 18:23:00,SystemResetWarning,0830.3,5.00,000.00,025.5,025.1,000.0,033.5,027.3,09.0,0000.0,0002.25,0007.91,0001.58
2024-01-31 18:24:00,SystemResetWarning,0830.3,5.01,000.00,025.6,025.2,000.0,033.6,027.3,08.9,0000.0,0002.30,0007.94,0001.61
2024-01-31 18:25:00,SystemResetWarning,0830.3,5.01,000.00,025.6,025.2,000.0,033.6,027.4,08.6,0000.0,0002.34,0008.16,0001.63
2024-01-31 18:26:00,SystemResetWarning,0830.3,4.98,000.00,025.6,025.2,000.0,033.6,027.4,08.7,0000.0,0002.33,0008.13,0001.63
2024-01-31 18:27:00,SystemResetWarning,0830.3,5.00,000.00,025.6,025.2,000.0,033.7,027.4,08.7,0000.0,0002.31,0007.83,0001.62
2024-01-31 18:28:00,SystemResetWarning,0830.3,5.01,000.00,025.6,025.3,000.0,033.7,027.5,08.6,0000.0,0002.27,0005.26,0001.62
2024-01-31 18:29:00,SystemResetWarning,0830.3,5.01,000.00,025.7,025.3,000.0,033.7,027.5,08.9,0000.0,0002.26,0005.00,0001.63
2024-01-31 18:30:00,SystemResetWarning,0830.2,5.01,000.00,025.7,025.3,000.0,033.7,027.5,09.0,0000.0,0002.33,0005.28,0001.64
2024-01-31 18:31:00,SystemResetWarning,0830.2,5.00,000.00,025.7,025.3,000.0,033.8,027.5,09.0,0000.0,0002.42,0005.50,0001.66
2024-01-31 18:32:00,SystemResetWarning,0830.2,5.00,000.00,025.7,025.3,000.0,033.8,027.5,08.9,0000.0,0002.49,0005.32,0001.67
2024-01-31 18:33:00,SystemResetWarning,0830.2,4.99,000.00,025.8,025.4,000.0,033.8,027.5,08.9,0000.0,0002.45,0004.94,0001.68
2024-01-31 18:34:00,SystemResetWarning,0830.2,5.00,000.00,025.8,025.4,000.0,033.8,027.6,09.0,0000.0,0002.44,0004.86,0001.67
2024-01-31 18:35:00,SystemResetWarning,0830.2,5.01,000.00,025.8,025.4,000.0,033.9,027.6,09.0,0000.0,0002.45,0004.88,0001.67
2024-01-31 18:36:00,SystemResetWarning,0830.2,5.00,000.00,025.8,025.4,000.0,033.9,027.6,08.9,0000.0,0002.48,0005.09,0001.68
2024-01-31 18:37:00,SystemResetWarning,0830.1,4.99,000.00,025.8,025.4,000.0,033.9,027.6,08.9,0000.0,0002.53,0005.61,0001.71
2024-01-31 18:38:00,SystemResetWarning,0830.1,4.99,000.00,025.9,025.5,000.0,033.9,027.7,08.8,0000.0,0002.59,0005.70,0001.73
2024-01-31 18:39:00,SystemResetWarning,0830.1,4.99,000.00,025.9,025.5,000.0,034.0,027.7,08.7,0000.0,0002.64,0005.74,0001.74
2024-01-31 18:40:00,SystemResetWarning,0830.1,5.01,000.00,025.9,025.5,000.0,034.0,027.7,08.7,0000.0,0002.61,0005.63,0001.72
2024-01-31 18:41:00,SystemResetWarning,0830.0,5.01,000.00,025.9,025.5,000.0,034.0,027.7,09.1,0000.0,0002.55,0005.39,0001.72
2024-01-31 18:42:00,SystemResetWarning,0830.0,4.99,000.00,025.9,025.6,000.0,034.0,027.8,08.9,0000.0,0002.55,0005.20,0001.73
2024-01-31 18:43:00,SystemResetWarning,0830.1,4.99,000.00,026.0,025.6,000.0,034.1,027.8,08.6,0000.0,0002.48,0005.18,0001.71
2024-01-31 18:44:00,SystemResetWarning,0830.0,5.01,000.00,026.0,025.6,000.0,034.1,027.8,08.7,0000.0,0002.46,0005.50,0001.69
2024-01-31 18:45:00,SystemResetWarning,0830.1,4.99,000.00,026.0,025.7,000.0,034.1,027.9,08.9,0000.0,0002.40,0005.92,0001.66
2024-01-31 18:46:00,SystemResetWarning,0830.0,5.01,000.00,026.1,025.7,000.0,034.1,027.9,08.8,0000.0,0002.39,0006.47,0001.66
2024-01-31 18:47:00,SystemResetWarning,0830.0,5.02,000.00,026.1,025.7,000.0,034.2,027.9,08.7,0000.0,0002.39,0006.66,0001.66
2024-01-31 18:48:00,SystemResetWarning,0830.0,5.00,000.00,026.1,025.7,000.0,034.2,028.0,08.6,0000.0,0002.39,0007.48,0001.65
2024-01-31 18:49:00,SystemResetWarning,0830.0,4.99,000.00,026.1,025.8,000.0,034.2,028.0,08.7,0000.0,0002.38,0007.38,0001.65
2024-01-31 18:50:00,SystemResetWarning,0830.0,4.99,000.00,026.2,025.8,000.0,034.2,028.0,09.0,0000.0,0002.36,0007.43,0001.65
2024-01-31 18:51:00,SystemResetWarning,0830.1,5.01,000.00,026.2,025.8,000.0,034.2,028.0,09.1,0000.0,0002.41,0007.57,0001.68
2024-01-31 18:52:00,SystemResetWarning,0830.0,5.01,000.00,026.2,025.8,000.0,034.3,028.0,09.0,0000.0,0002.48,0007.66,0001.71
2024-01-31 18:53:00,SystemResetWarning,0830.0,4.99,000.00,026.2,025.8,000.0,034.3,028.0,09.0,0000.0,0002.49,0007.68,0001.70
2024-01-31 18:54:00,SystemResetWarning,0830.0,5.00,000.00,026.2,025.8,000.0,034.3,028.0,09.1,0000.0,0002.51,0008.18,0001.71
2024-01-31 18:55:00,SystemResetWarning,0829.9,5.01,000.00,026.3,025.8,000.0,034.4,028.0,09.0,0000.0,0002.57,0008.75,0001.72
2024-01-31 18:56:00,SystemResetWarning,0829.9,5.00,000.00,026.3,025.9,000.0,034.4,028.0,08.9,0000.0,0002.65,0008.83,0001.74
2024-01-31 18:57:00,SystemResetWarning,0829.8,5.01,000.00,026.3,025.9,000.0,034.4,028.0,09.0,0000.0,0002.75,0010.09,0001.75
2024-01-31 18:58:00,SystemResetWarning,0829.8,5.00,000.00,026.3,025.9,000.0,034.4,028.1,08.8,0000.0,0002.80,0009.95,0001.75
2024-01-31 18:59:00,SystemResetWarning,0829.8,4.99,000.00,026.3,025.9,000.0,034.4,028.1,09.1,0000.0,0002.84,0009.66,0001.76
